Time,TemperatureF,DewpointF,PressureIn,WindDirection,WindDirectionDegrees,WindSpeedMPH,WindSpeedGustMPH,Humidity,HourlyPrecipIn,Conditions,Clouds,dailyrainin,SoftwareType,DateUTC
2013-08-11 00:01:00,59.0,56.0,30.00,NW,319,0.0,0.0,91,-99.99,,,-99.99,,2013-08-11 04:01:00,
2013-08-11 00:12:00,59.0,56.0,30.00,NW,319,0.0,0.0,91,-99.99,,,-99.99,,2013-08-11 04:12:00,
2013-08-11 00:22:00,59.0,56.0,30.01,NW,318,0.0,0.0,91,-99.99,,,-99.99,,2013-08-11 04:22:00,
2013-08-11 00:32:00,58.0,55.0,30.01,NW,319,0.0,0.0,91,-99.99,,,-99.99,,2013-08-11 04:32:00,
2013-08-11 00:43:00,58.0,55.0,30.00,NW,319,0.0,0.0,91,-99.99,,,-99.99,,2013-08-11 04:43:00,
2013-08-11 00:53:00,58.0,55.0,30.01,NW,319,0.0,0.0,91,-99.99,,,-99.99,,2013-08-11 04:53:00,
2013-08-11 01:02:00,57.0,55.0,30.01,NW,319,0.0,0.0,92,-99.99,,,-99.99,,2013-08-11 05:02:00,
2013-08-11 01:20:00,57.0,55.0,30.01,NW,319,0.0,0.0,92,-99.99,,,-99.99,,2013-08-11 05:20:00,
2013-08-11 01:25:00,57.0,55.0,30.01,NW,319,0.0,3.0,92,-99.99,,,-99.99,,2013-08-11 05:25:00,
2013-08-11 01:37:00,57.0,55.0,30.01,NW,318,0.0,0.0,92,-99.99,,,-99.99,,2013-08-11 05:37:00,
2013-08-11 01:47:00,57.0,55.0,30.01,NW,319,0.0,0.0,93,-99.99,,,-99.99,,2013-08-11 05:47:00,
2013-08-11 01:54:00,57.0,55.0,30.02,NW,319,0.0,0.0,93,-99.99,,,-99.99,,2013-08-11 05:54:00,
2013-08-11 02:04:00,56.0,54.0,30.02,NW,318,0.0,0.0,93,-99.99,,,-99.99,,2013-08-11 06:04:00,
2013-08-11 02:17:00,56.0,54.0,30.02,NW,319,0.0,0.0,93,-99.99,,,-99.99,,2013-08-11 06:17:00,
2013-08-11 02:26:00,56.0,54.0,30.02,NW,319,0.0,0.0,93,-99.99,,,-99.99,,2013-08-11 06:26:00,
2013-08-11 02:37:00,56.0,54.0,30.02,NW,319,0.0,0.0,93,-99.99,,,-99.99,,2013-08-11 06:37:00,
2013-08-11 02:55:00,55.0,53.0,30.02,NW,319,0.0,0.0,93,-99.99,,,-99.99,,2013-08-11 06:55:00,
2013-08-11 03:06:00,55.0,53.0,30.02,NW,319,0.0,0.0,93,-99.99,,,-99.99,,2013-08-11 07:06:00,
2013-08-11 03:16:00,55.0,53.0,30.02,NW,319,0.0,0.0,93,-99.99,,,-99.99,,2013-08-11 07:16:00,
2013-08-11 03:25:00,55.0,53.0,30.01,NW,318,0.0,0.0,94,-99.99,,,-99.99,,2013-08-11 07:25:00,
2013-08-11 03:36:00,54.0,52.0,30.01,NW,318,0.0,0.0,93,-99.99,,,-99.99,,2013-08-11 07:36:00,
2013-08-11 03:45:00,54.0,52.0,30.02,NW,319,0.0,0.0,94,-99.99,,,-99.99,,2013-08-11 07:45:00,
2013-08-11 03:54:00,54.0,52.0,30.02,NW,319,0.0,0.0,94,-99.99,,,-99.99,,2013-08-11 07:54:00,
2013-08-11 04:26:00,54.0,52.0,30.03,NW,319,0.0,0.0,94,-99.99,,,-99.99,,2013-08-11 08:26:00,
2013-08-11 04:36:00,54.0,52.0,30.03,NW,319,0.0,0.0,94,-99.99,,,-99.99,,2013-08-11 08:36:00,
2013-08-11 04:48:00,53.0,51.0,30.03,NW,319,0.0,0.0,94,-99.99,,,-99.99,,2013-08-11 08:48:00,
2013-08-11 04:57:00,53.0,51.0,30.03,NW,318,0.0,0.0,94,-99.99,,,-99.99,,2013-08-11 08:57:00,
2013-08-11 05:09:00,53.0,51.0,30.03,NW,318,0.0,0.0,94,-99.99,,,-99.99,,2013-08-11 09:09:00,
2013-08-11 05:17:00,53.0,51.0,30.04,NW,319,0.0,0.0,94,-99.99,,,-99.99,,2013-08-11 09:17:00,
2013-08-11 05:29:00,53.0,51.0,30.04,NW,319,0.0,0.0,94,-99.99,,,-99.99,,2013-08-11 09:29:00,
2013-08-11 05:35:00,53.0,51.0,30.04,NW,319,0.0,0.0,94,-99.99,,,-99.99,,2013-08-11 09:35:00,
2013-08-11 05:44:00,53.0,51.0,30.04,NW,318,0.0,0.0,94,-99.99,,,-99.99,,2013-08-11 09:44:00,
2013-08-11 06:05:00,53.0,52.0,30.04,NW,319,0.0,0.0,95,-99.99,,,-99.99,,2013-08-11 10:05:00,
2013-08-11 06:15:00,52.0,50.0,30.04,NW,319,0.0,0.0,94,-99.99,,,-99.99,,2013-08-11 10:15:00,
2013-08-11 06:29:00,52.0,50.0,30.05,NW,319,0.0,0.0,94,-99.99,,,-99.99,,2013-08-11 10:29:00,
2013-08-11 06:46:00,52.0,50.0,30.05,NW,318,0.0,0.0,94,-99.99,,,-99.99,,2013-08-11 10:46:00,
2013-08-11 06:55:00,52.0,51.0,30.05,NW,319,0.0,0.0,95,-99.99,,,-99.99,,2013-08-11 10:55:00,
2013-08-11 07:06:00,52.0,51.0,30.06,NW,319,0.0,0.0,95,-99.99,,,-99.99,,2013-08-11 11:06:00,
2013-08-11 07:24:00,53.0,52.0,30.06,NW,319,0.0,0.0,95,-99.99,,,-99.99,,2013-08-11 11:24:00,
2013-08-11 07:47:00,54.0,53.0,30.06,NW,318,0.0,0.0,96,-99.99,,,-99.99,,2013-08-11 11:47:00,
2013-08-11 07:56:00,55.0,54.0,30.06,NW,319,0.0,0.0,96,-99.99,,,-99.99,,2013-08-11 11:56:00,
2013-08-11 08:06:00,56.0,55.0,30.06,NW,319,0.0,1.0,96,-99.99,,,-99.99,,2013-08-11 12:06:00,
2013-08-11 08:16:00,57.0,56.0,30.06,NW,318,0.0,3.0,97,-99.99,,,-99.99,,2013-08-11 12:16:00,
2013-08-11 08:30:00,59.0,58.0,30.06,NW,319,0.0,3.0,95,-99.99,,,-99.99,,2013-08-11 12:30:00,
2013-08-11 08:36:00,61.0,57.0,30.06,NNW,346,0.0,3.0,87,-99.99,,,-99.99,,2013-08-11 12:36:00,
2013-08-11 08:45:00,63.0,57.0,30.06,NNW,332,1.0,5.0,80,-99.99,,,-99.99,,2013-08-11 12:45:00,
2013-08-11 08:54:00,64.0,57.0,30.06,West,274,3.0,5.0,78,-99.99,,,-99.99,,2013-08-11 12:54:00,
2013-08-11 09:06:00,65.0,57.0,30.06,NW,305,1.0,4.0,75,-99.99,,,-99.99,,2013-08-11 13:06:00,
2013-08-11 09:16:00,66.0,57.0,30.06,NW,305,2.0,5.0,74,-99.99,,,-99.99,,2013-08-11 13:16:00,
2013-08-11 09:26:00,67.0,58.0,30.06,WNW,296,1.0,5.0,73,-99.99,,,-99.99,,2013-08-11 13:26:00,
2013-08-11 09:39:00,68.0,58.0,30.06,NW,306,3.0,6.0,70,-99.99,,,-99.99,,2013-08-11 13:39:00,
2013-08-11 09:45:00,68.0,58.0,30.06,WNW,290,1.0,5.0,70,-99.99,,,-99.99,,2013-08-11 13:45:00,
2013-08-11 09:56:00,69.0,58.0,30.06,NW,325,2.0,4.0,68,-99.99,,,-99.99,,2013-08-11 13:56:00,
2013-08-11 10:05:00,70.0,58.0,30.06,NNW,330,1.0,5.0,65,-99.99,,,-99.99,,2013-08-11 14:05:00,
2013-08-11 10:18:00,71.0,58.0,30.06,WNW,286,1.0,6.0,64,-99.99,,,-99.99,,2013-08-11 14:18:00,
2013-08-11 10:24:00,71.0,58.0,30.06,NW,315,1.0,6.0,64,-99.99,,,-99.99,,2013-08-11 14:24:00,
2013-08-11 10:35:00,71.0,57.0,30.06,WNW,289,3.0,11.0,62,-99.99,,,-99.99,,2013-08-11 14:35:00,
2013-08-11 10:48:00,72.0,58.0,30.06,NW,309,2.0,6.0,61,-99.99,,,-99.99,,2013-08-11 14:48:00,
2013-08-11 10:56:00,72.0,58.0,30.05,WNW,302,0.0,5.0,61,-99.99,,,-99.99,,2013-08-11 14:56:00,
2013-08-11 11:08:00,73.0,57.0,30.05,WNW,296,2.0,6.0,58,-99.99,,,-99.99,,2013-08-11 15:08:00,
2013-08-11 11:15:00,73.0,58.0,30.05,NNW,327,0.0,9.0,59,-99.99,,,-99.99,,2013-08-11 15:15:00,
2013-08-11 11:24:00,73.0,57.0,30.05,NW,313,2.0,6.0,57,-99.99,,,-99.99,,2013-08-11 15:24:00,
2013-08-11 11:39:00,74.0,57.0,30.04,NW,304,4.0,10.0,55,-99.99,,,-99.99,,2013-08-11 15:39:00,
2013-08-11 11:48:00,75.0,58.0,30.05,NW,314,2.0,5.0,56,-99.99,,,-99.99,,2013-08-11 15:48:00,
2013-08-11 12:10:00,75.0,57.0,30.04,NW,315,4.0,10.0,54,-99.99,,,-99.99,,2013-08-11 16:10:00,
2013-08-11 12:29:00,75.0,57.0,30.04,NW,311,2.0,11.0,53,-99.99,,,-99.99,,2013-08-11 16:29:00,
2013-08-11 12:46:00,76.0,58.0,30.04,NNW,333,2.0,6.0,53,-99.99,,,-99.99,,2013-08-11 16:46:00,
2013-08-11 12:55:00,76.0,57.0,30.03,NW,317,1.0,6.0,51,-99.99,,,-99.99,,2013-08-11 16:55:00,
2013-08-11 13:08:00,77.0,57.0,30.03,NW,322,2.0,5.0,51,-99.99,,,-99.99,,2013-08-11 17:08:00,
2013-08-11 13:14:00,77.0,56.0,30.03,NW,313,5.0,10.0,48,-99.99,,,-99.99,,2013-08-11 17:14:00,
2013-08-11 13:25:00,77.0,56.0,30.02,NW,313,2.0,10.0,48,-99.99,,,-99.99,,2013-08-11 17:25:00,
2013-08-11 13:37:00,77.0,56.0,30.02,NW,310,1.0,11.0,48,-99.99,,,-99.99,,2013-08-11 17:37:00,
2013-08-11 13:45:00,77.0,55.0,30.02,NNW,328,2.0,7.0,47,-99.99,,,-99.99,,2013-08-11 17:45:00,
2013-08-11 13:55:00,78.0,57.0,30.01,WNW,300,3.0,6.0,49,-99.99,,,-99.99,,2013-08-11 17:55:00,
2013-08-11 14:06:00,78.0,57.0,30.02,NNW,336,2.0,9.0,48,-99.99,,,-99.99,,2013-08-11 18:06:00,
2013-08-11 14:18:00,78.0,56.0,30.01,WNW,300,2.0,7.0,46,-99.99,,,-99.99,,2013-08-11 18:18:00,
2013-08-11 14:39:00,78.0,56.0,30.01,NW,315,1.0,9.0,47,-99.99,,,-99.99,,2013-08-11 18:39:00,
2013-08-11 14:47:00,79.0,56.0,30.01,NNW,331,4.0,10.0,46,-99.99,,,-99.99,,2013-08-11 18:47:00,
2013-08-11 14:54:00,79.0,56.0,30.01,NW,317,1.0,7.0,45,-99.99,,,-99.99,,2013-08-11 18:54:00,
2013-08-11 15:09:00,79.0,56.0,30.01,WNW,292,4.0,10.0,45,-99.99,,,-99.99,,2013-08-11 19:09:00,
2013-08-11 15:16:00,78.0,56.0,30.01,NNW,332,3.0,7.0,46,-99.99,,,-99.99,,2013-08-11 19:16:00,
2013-08-11 15:34:00,79.0,56.0,30.00,NW,315,1.0,5.0,46,-99.99,,,-99.99,,2013-08-11 19:34:00,
2013-08-11 15:50:00,79.0,56.0,30.01,SSW,193,3.0,10.0,45,-99.99,,,-99.99,,2013-08-11 19:50:00,
2013-08-11 15:56:00,79.0,56.0,30.00,NW,310,0.0,6.0,46,-99.99,,,-99.99,,2013-08-11 19:56:00,
2013-08-11 16:08:00,79.0,56.0,30.00,WNW,296,2.0,9.0,45,-99.99,,,-99.99,,2013-08-11 20:08:00,
2013-08-11 16:19:00,78.0,57.0,30.00,North,355,0.0,4.0,48,-99.99,,,-99.99,,2013-08-11 20:19:00,
2013-08-11 16:28:00,79.0,56.0,30.00,NW,309,3.0,6.0,45,-99.99,,,-99.99,,2013-08-11 20:28:00,
2013-08-11 16:38:00,80.0,57.0,30.00,NNW,327,2.0,5.0,45,-99.99,,,-99.99,,2013-08-11 20:38:00,
2013-08-11 16:48:00,79.0,58.0,30.00,NW,318,0.0,4.0,48,-99.99,,,-99.99,,2013-08-11 20:48:00,
2013-08-11 16:55:00,79.0,56.0,29.99,ENE,78,0.0,2.0,45,-99.99,,,-99.99,,2013-08-11 20:55:00,
2013-08-11 17:08:00,77.0,56.0,29.99,ENE,78,0.0,2.0,49,-99.99,,,-99.99,,2013-08-11 21:08:00,
2013-08-11 17:13:00,77.0,55.0,29.99,NW,308,1.0,4.0,47,-99.99,,,-99.99,,2013-08-11 21:13:00,
2013-08-11 17:27:00,77.0,57.0,29.99,NW,308,0.0,1.0,51,-99.99,,,-99.99,,2013-08-11 21:27:00,
2013-08-11 17:47:00,78.0,57.0,29.98,NW,318,0.0,2.0,48,-99.99,,,-99.99,,2013-08-11 21:47:00,
2013-08-11 17:55:00,78.0,56.0,29.98,NW,313,2.0,4.0,46,-99.99,,,-99.99,,2013-08-11 21:55:00,
2013-08-11 18:16:00,77.0,56.0,29.98,SSE,153,0.0,5.0,49,-99.99,,,-99.99,,2013-08-11 22:16:00,
2013-08-11 18:25:00,76.0,55.0,29.98,NNW,333,0.0,3.0,49,-99.99,,,-99.99,,2013-08-11 22:25:00,
2013-08-11 18:36:00,76.0,55.0,29.98,NNW,333,0.0,2.0,49,-99.99,,,-99.99,,2013-08-11 22:36:00,
2013-08-11 18:46:00,76.0,56.0,29.98,ESE,122,0.0,4.0,50,-99.99,,,-99.99,,2013-08-11 22:46:00,
2013-08-11 19:06:00,76.0,57.0,29.98,ESE,122,0.0,4.0,51,-99.99,,,-99.99,,2013-08-11 23:06:00,
2013-08-11 19:29:00,74.0,62.0,29.98,ESE,121,0.0,0.0,67,-99.99,,,-99.99,,2013-08-11 23:29:00,
2013-08-11 19:35:00,73.0,62.0,29.98,ESE,121,0.0,0.0,68,-99.99,,,-99.99,,2013-08-11 23:35:00,
2013-08-11 19:48:00,72.0,62.0,29.98,ESE,122,0.0,0.0,70,-99.99,,,-99.99,,2013-08-11 23:48:00,
2013-08-11 20:25:00,69.0,62.0,29.98,ESE,122,0.0,0.0,78,-99.99,,,-99.99,,2013-08-12 00:25:00,
2013-08-11 20:37:00,68.0,61.0,29.99,ESE,122,0.0,0.0,79,-99.99,,,-99.99,,2013-08-12 00:37:00,
2013-08-11 21:08:00,66.0,60.0,29.99,ESE,122,0.0,4.0,82,-99.99,,,-99.99,,2013-08-12 01:08:00,
2013-08-11 21:14:00,65.0,60.0,29.99,ESE,122,0.0,0.0,85,-99.99,,,-99.99,,2013-08-12 01:14:00,
2013-08-11 21:26:00,65.0,61.0,30.00,ESE,122,0.0,0.0,86,-99.99,,,-99.99,,2013-08-12 01:26:00,
2013-08-11 21:38:00,64.0,60.0,30.00,ESE,122,0.0,0.0,87,-99.99,,,-99.99,,2013-08-12 01:38:00,
2013-08-11 21:55:00,64.0,60.0,30.01,ESE,122,0.0,0.0,88,-99.99,,,-99.99,,2013-08-12 01:55:00,
2013-08-11 22:08:00,63.0,59.0,30.01,ESE,122,0.0,0.0,88,-99.99,,,-99.99,,2013-08-12 02:08:00,
2013-08-11 22:15:00,63.0,59.0,30.01,ESE,122,0.0,0.0,88,-99.99,,,-99.99,,2013-08-12 02:15:00,
2013-08-11 22:25:00,62.0,59.0,30.01,ESE,122,0.0,0.0,89,-99.99,,,-99.99,,2013-08-12 02:25:00,
2013-08-11 22:47:00,62.0,59.0,30.01,ESE,122,0.0,0.0,90,-99.99,,,-99.99,,2013-08-12 02:47:00,
2013-08-11 23:08:00,61.0,58.0,30.01,ESE,122,0.0,0.0,90,-99.99,,,-99.99,,2013-08-12 03:08:00,
2013-08-11 23:15:00,61.0,58.0,30.01,ESE,122,0.0,0.0,91,-99.99,,,-99.99,,2013-08-12 03:15:00,
2013-08-11 23:25:00,60.0,57.0,30.01,ESE,122,0.0,0.0,91,-99.99,,,-99.99,,2013-08-12 03:25:00,
2013-08-11 23:39:00,60.0,57.0,30.01,ESE,122,0.0,0.0,91,-99.99,,,-99.99,,2013-08-12 03:39:00,
2013-08-11 23:46:00,60.0,57.0,30.01,ESE,122,0.0,0.0,91,-99.99,,,-99.99,,2013-08-12 03:46:00,